User: anonymous   Login
Location: Newark
(43.6486°N, 79.3853°W)
Time: 10:44:27
(UTC+00:00)
Language:

STARLINK-1302 - Orbit

View from above orbital plane
View from above orbital plane
View from above satellite
View from above satellite

Ground track
Ground track

The orbit data is extracted from the following two-line orbital elements,

1 45375U 20019R   20185.16667824  .00001394  00000-0  11479-3 0  9994
2 45375  52.9994 124.0021 0001556  85.2003  70.5460 15.05585404 16915
Epoch (UTC): 03 July 2020 04:00:01
Eccentricity: 0.0001556
inclination: 52.9994°
perigee height: 548 km
apogee height: 551 km
right ascension of ascending node: 124.0021°
argument of perigee: 85.2003°
revolutions per day: 15.05585404
mean anomaly at epoch: 70.5460°
orbit number at epoch: 1691

The dashed part of the orbit path shows where the satellite is in the earth's shadow,  

DLR